Satellite-Ground Cal/Val Region Overpasses Predictions

Prediction of Satellite NPP Overpassing Cal/Val Region: PacNW

Region Location: (Latitude: 10.00, Longitude: 139.50) to (Latitude: 22.70, Longitude: 165.60).

Table of predicted overpasses for the next 14.0 days since TLE Epoch: 1/25/2014
Interval Starting Time Starting Location Ending Time Ending Location
1 01/25/2014 14:55:06 ( 22.66, 161.84) 01/25/2014 14:58:41 ( 10.03, 158.83)
2 01/26/2014 03:45:42 ( 10.03, 143.97) 01/26/2014 03:49:17 ( 22.65, 140.95)
3 01/26/2014 14:37:16 ( 18.55, 165.59) 01/26/2014 14:39:41 ( 10.03, 163.59)
4 01/26/2014 16:17:36 ( 22.66, 141.23) 01/26/2014 16:19:36 ( 15.62, 139.51)
5 01/27/2014 03:26:41 ( 10.03, 148.72) 01/27/2014 03:30:16 ( 22.65, 145.71)
6 01/27/2014 15:58:35 ( 22.65, 145.98) 01/27/2014 16:02:10 ( 10.03, 142.97)
7 01/28/2014 03:07:41 ( 10.03, 153.48) 01/28/2014 03:11:16 ( 22.65, 150.47)
8 01/28/2014 15:39:35 ( 22.65, 150.74) 01/28/2014 15:43:10 ( 10.03, 147.73)
9 01/29/2014 02:48:41 ( 10.03, 158.24) 01/29/2014 02:52:16 ( 22.65, 155.22)
10 01/29/2014 15:20:34 ( 22.65, 155.50) 01/29/2014 15:24:09 ( 10.03, 152.48)
11 01/30/2014 02:29:40 ( 10.04, 162.99) 01/30/2014 02:33:15 ( 22.66, 159.98)
12 01/30/2014 15:01:34 ( 22.64, 160.25) 01/30/2014 15:05:09 ( 10.02, 157.24)
13 01/31/2014 02:13:16 ( 19.20, 165.59) 01/31/2014 02:14:15 ( 22.66, 164.74)
14 01/31/2014 03:52:10 ( 10.04, 142.38) 01/31/2014 03:55:35 ( 22.08, 139.51)
15 01/31/2014 14:42:32 ( 22.70, 165.02) 01/31/2014 14:46:08 ( 10.02, 162.00)
16 01/31/2014 16:24:02 ( 22.70, 139.65) 01/31/2014 16:24:12 ( 22.11, 139.50)
17 02/01/2014 03:33:09 ( 10.05, 147.13) 02/01/2014 03:36:44 ( 22.67, 144.12)
18 02/01/2014 16:05:02 ( 22.69, 144.41) 02/01/2014 16:08:38 ( 10.01, 141.38)
19 02/02/2014 03:14:09 ( 10.05, 151.89) 02/02/2014 03:17:44 ( 22.67, 148.87)
20 02/02/2014 15:46:01 ( 22.69, 149.16) 02/02/2014 15:49:37 ( 10.01, 146.13)
21 02/03/2014 02:55:07 ( 10.00, 156.66) 02/03/2014 02:58:43 ( 22.68, 153.63)
22 02/03/2014 15:27:01 ( 22.68, 153.92) 02/03/2014 15:30:37 ( 10.00, 150.89)
23
